Time,TemperatureF,DewpointF,PressureIn,WindDirection,WindDirectionDegrees,WindSpeedMPH,WindSpeedGustMPH,Humidity,HourlyPrecipIn,Conditions,Clouds,dailyrainin,SoftwareType,DateUTC
2013-03-24 00:02:00,27.0,13.0,30.08,North,8,6.0,8.0,54,0.00,,,0.00,,2013-03-24 05:02:00,
2013-03-24 00:12:00,27.0,13.0,30.08,North,8,6.0,8.0,54,0.00,,,0.00,,2013-03-24 05:12:00,
2013-03-24 00:22:00,27.0,13.0,30.08,North,353,3.0,10.0,55,0.00,,,0.00,,2013-03-24 05:22:00,
2013-03-24 00:32:00,27.0,13.0,30.08,NNE,23,10.0,10.0,56,0.00,,,0.00,,2013-03-24 05:32:00,
2013-03-24 00:42:00,27.0,13.0,30.08,NNE,23,10.0,10.0,56,0.00,,,0.00,,2013-03-24 05:42:00,
2013-03-24 00:52:00,27.0,13.0,30.05,North,357,6.0,8.0,56,0.00,,,0.00,,2013-03-24 05:52:00,
2013-03-24 01:02:00,27.0,14.0,30.05,North,357,6.0,6.0,58,0.00,,,0.00,,2013-03-24 06:02:00,
2013-03-24 01:12:00,27.0,14.0,30.05,North,357,6.0,6.0,58,0.00,,,0.00,,2013-03-24 06:12:00,
2013-03-24 01:22:00,26.0,14.0,30.05,NNE,24,8.0,8.0,59,0.00,,,0.00,,2013-03-24 06:22:00,
2013-03-24 01:32:00,26.0,14.0,30.05,North,6,6.0,6.0,60,0.00,,,0.00,,2013-03-24 06:32:00,
2013-03-24 01:42:00,26.0,14.0,30.05,North,6,6.0,6.0,60,0.00,,,0.00,,2013-03-24 06:42:00,
2013-03-24 01:52:00,26.0,14.0,30.05,North,2,6.0,8.0,60,0.00,,,0.00,,2013-03-24 06:52:00,
2013-03-24 02:02:00,26.0,14.0,30.05,North,357,8.0,8.0,60,0.00,,,0.00,,2013-03-24 07:02:00,
2013-03-24 02:12:00,26.0,14.0,30.05,North,357,8.0,8.0,60,0.00,,,0.00,,2013-03-24 07:12:00,
2013-03-24 02:22:00,26.0,14.0,30.05,North,357,3.0,8.0,59,0.00,,,0.00,,2013-03-24 07:22:00,
2013-03-24 02:32:00,27.0,15.0,30.05,North,1,6.0,6.0,59,0.00,,,0.00,,2013-03-24 07:32:00,
2013-03-24 02:42:00,27.0,15.0,30.05,North,1,6.0,6.0,59,0.00,,,0.00,,2013-03-24 07:42:00,
2013-03-24 02:52:00,27.0,14.0,30.05,North,357,8.0,9.0,58,0.00,,,0.00,,2013-03-24 07:52:00,
2013-03-24 03:03:00,27.0,14.0,30.05,North,9,6.0,7.0,58,0.00,,,0.00,,2013-03-24 08:03:00,
2013-03-24 03:12:00,27.0,14.0,30.05,North,9,6.0,7.0,58,0.00,,,0.00,,2013-03-24 08:12:00,
2013-03-24 03:22:00,26.0,13.0,30.02,North,2,3.0,6.0,58,0.00,,,0.00,,2013-03-24 08:22:00,
2013-03-24 03:32:00,26.0,14.0,30.02,North,353,4.0,5.0,59,0.00,,,0.00,,2013-03-24 08:32:00,
2013-03-24 03:42:00,26.0,14.0,30.02,North,353,4.0,5.0,59,0.00,,,0.00,,2013-03-24 08:42:00,
2013-03-24 04:02:00,26.0,14.0,30.02,NNW,336,0.0,8.0,60,0.00,,,0.00,,2013-03-24 09:02:00,
2013-03-24 04:12:00,26.0,14.0,30.02,NNW,336,0.0,8.0,60,0.00,,,0.00,,2013-03-24 09:12:00,
2013-03-24 04:22:00,26.0,14.0,30.02,North,353,6.0,6.0,60,0.00,,,0.00,,2013-03-24 09:22:00,
2013-03-24 04:33:00,26.0,14.0,30.02,North,349,5.0,6.0,60,0.00,,,0.00,,2013-03-24 09:33:00,
2013-03-24 04:42:00,26.0,14.0,30.02,North,349,5.0,6.0,60,0.00,,,0.00,,2013-03-24 09:42:00,
2013-03-24 04:52:00,25.0,13.0,30.02,NNW,343,8.0,8.0,61,0.00,,,0.00,,2013-03-24 09:52:00,
2013-03-24 05:03:00,25.0,14.0,30.02,North,357,8.0,8.0,62,0.00,,,0.00,,2013-03-24 10:03:00,
2013-03-24 05:12:00,25.0,14.0,30.02,North,357,8.0,8.0,62,0.00,,,0.00,,2013-03-24 10:12:00,
2013-03-24 05:22:00,25.0,15.0,29.99,NNW,345,6.0,10.0,66,0.00,,,0.00,,2013-03-24 10:22:00,
2013-03-24 05:33:00,25.0,17.0,29.99,North,357,4.0,8.0,70,0.00,,,0.00,,2013-03-24 10:33:00,
2013-03-24 05:42:00,25.0,17.0,29.99,North,357,4.0,8.0,70,0.00,,,0.00,,2013-03-24 10:42:00,
2013-03-24 05:52:00,25.0,17.0,29.99,North,357,4.0,7.0,71,0.00,,,0.00,,2013-03-24 10:52:00,
2013-03-24 06:03:00,25.0,17.0,29.99,North,0,6.0,8.0,72,0.00,,,0.00,,2013-03-24 11:03:00,
2013-03-24 06:12:00,25.0,17.0,29.99,North,0,6.0,8.0,72,0.00,,,0.00,,2013-03-24 11:12:00,
2013-03-24 06:22:00,24.0,17.0,29.99,NNW,335,4.0,8.0,73,0.00,,,0.00,,2013-03-24 11:22:00,
2013-03-24 06:32:00,25.0,17.0,29.99,North,1,9.0,9.0,72,0.00,,,0.00,,2013-03-24 11:32:00,
2013-03-24 06:42:00,25.0,17.0,29.99,North,1,9.0,9.0,72,0.00,,,0.00,,2013-03-24 11:42:00,
2013-03-24 06:52:00,25.0,17.0,29.99,North,8,6.0,9.0,70,0.00,,,0.00,,2013-03-24 11:52:00,
2013-03-24 07:02:00,25.0,16.0,29.99,NNE,26,6.0,8.0,69,0.00,,,0.00,,2013-03-24 12:02:00,
2013-03-24 07:12:00,25.0,16.0,29.99,NNE,26,6.0,8.0,69,0.00,,,0.00,,2013-03-24 12:12:00,
2013-03-24 07:22:00,25.0,16.0,29.99,North,11,5.0,8.0,68,0.00,,,0.00,,2013-03-24 12:22:00,
2013-03-24 07:32:00,25.0,15.0,29.99,NNE,12,6.0,8.0,66,0.00,,,0.00,,2013-03-24 12:32:00,
2013-03-24 07:42:00,25.0,15.0,29.99,NNE,12,6.0,8.0,66,0.00,,,0.00,,2013-03-24 12:42:00,
2013-03-24 07:52:00,25.0,15.0,29.99,North,357,4.0,8.0,66,0.00,,,0.00,,2013-03-24 12:52:00,
2013-03-24 08:02:00,26.0,16.0,29.99,NNE,16,5.0,5.0,64,0.00,,,0.00,,2013-03-24 13:02:00,
2013-03-24 08:12:00,26.0,16.0,29.99,NNE,16,5.0,5.0,64,0.00,,,0.00,,2013-03-24 13:12:00,
2013-03-24 08:22:00,26.0,16.0,29.99,North,11,8.0,9.0,65,0.00,,,0.00,,2013-03-24 13:22:00,
2013-03-24 08:32:00,26.0,16.0,29.99,North,4,8.0,10.0,64,0.00,,,0.00,,2013-03-24 13:32:00,
2013-03-24 08:42:00,26.0,16.0,29.99,North,4,8.0,10.0,64,0.00,,,0.00,,2013-03-24 13:42:00,
2013-03-24 08:52:00,26.0,15.0,29.99,North,2,6.0,8.0,63,0.00,,,0.00,,2013-03-24 13:52:00,
2013-03-24 09:02:00,26.0,15.0,29.99,North,353,10.0,10.0,62,0.00,,,0.00,,2013-03-24 14:02:00,
2013-03-24 09:12:00,26.0,15.0,29.99,North,353,10.0,10.0,62,0.00,,,0.00,,2013-03-24 14:12:00,
2013-03-24 09:22:00,26.0,15.0,29.99,NNE,20,9.0,9.0,62,0.00,,,0.00,,2013-03-24 14:22:00,
2013-03-24 09:32:00,26.0,14.0,29.96,North,0,6.0,9.0,61,0.00,,,0.00,,2013-03-24 14:32:00,
2013-03-24 09:42:00,26.0,14.0,29.96,North,0,6.0,9.0,61,0.00,,,0.00,,2013-03-24 14:42:00,
2013-03-24 09:52:00,27.0,15.0,29.96,North,357,8.0,9.0,61,0.00,,,0.00,,2013-03-24 14:52:00,
2013-03-24 10:02:00,27.0,15.0,29.96,NNE,17,8.0,13.0,61,0.00,,,0.00,,2013-03-24 15:02:00,
2013-03-24 10:12:00,27.0,15.0,29.96,NNE,17,8.0,13.0,61,0.00,,,0.00,,2013-03-24 15:12:00,
2013-03-24 10:22:00,28.0,16.0,29.96,North,0,6.0,8.0,60,0.00,,,0.00,,2013-03-24 15:22:00,
2013-03-24 10:33:00,28.0,15.0,29.96,North,0,10.0,10.0,58,0.00,,,0.00,,2013-03-24 15:33:00,
2013-03-24 10:43:00,28.0,15.0,29.96,North,0,10.0,10.0,58,0.00,,,0.00,,2013-03-24 15:43:00,
2013-03-24 10:53:00,28.0,15.0,29.96,NNE,18,9.0,10.0,58,0.00,,,0.00,,2013-03-24 15:53:00,
2013-03-24 11:03:00,29.0,15.0,29.96,North,0,6.0,8.0,55,0.00,,,0.00,,2013-03-24 16:03:00,
2013-03-24 11:12:00,29.0,15.0,29.96,North,0,6.0,8.0,55,0.00,,,0.00,,2013-03-24 16:12:00,
2013-03-24 11:22:00,29.0,15.0,29.96,North,357,6.0,8.0,55,0.00,,,0.00,,2013-03-24 16:22:00,
2013-03-24 11:33:00,30.0,16.0,29.96,North,2,8.0,8.0,55,0.00,,,0.00,,2013-03-24 16:33:00,
2013-03-24 11:42:00,30.0,16.0,29.96,North,2,8.0,8.0,55,0.00,,,0.00,,2013-03-24 16:42:00,
2013-03-24 11:52:00,30.0,15.0,29.96,NNW,338,8.0,10.0,54,0.00,,,0.00,,2013-03-24 16:52:00,
2013-03-24 12:02:00,31.0,16.0,29.96,NNW,342,8.0,8.0,54,0.00,,,0.00,,2013-03-24 17:02:00,
2013-03-24 12:12:00,31.0,16.0,29.96,NNW,342,8.0,8.0,54,0.00,,,0.00,,2013-03-24 17:12:00,
2013-03-24 12:23:00,32.0,17.0,29.96,North,8,12.0,12.0,53,0.00,,,0.00,,2013-03-24 17:23:00,
2013-03-24 12:33:00,33.0,17.0,29.96,North,8,8.0,10.0,51,0.00,,,0.00,,2013-03-24 17:33:00,
2013-03-24 12:42:00,33.0,17.0,29.96,North,8,8.0,10.0,51,0.00,,,0.00,,2013-03-24 17:42:00,
2013-03-24 12:52:00,32.0,16.0,29.96,North,357,6.0,11.0,52,0.00,,,0.00,,2013-03-24 17:52:00,
2013-03-24 13:03:00,33.0,18.0,29.93,NNE,18,5.0,12.0,53,0.00,,,0.00,,2013-03-24 18:03:00,
2013-03-24 13:12:00,33.0,18.0,29.93,NNE,18,5.0,12.0,53,0.00,,,0.00,,2013-03-24 18:12:00,
2013-03-24 13:22:00,33.0,18.0,29.93,North,357,7.0,9.0,54,0.00,,,0.00,,2013-03-24 18:22:00,
2013-03-24 13:32:00,33.0,17.0,29.93,NE,36,10.0,12.0,52,0.00,,,0.00,,2013-03-24 18:32:00,
2013-03-24 13:43:00,33.0,17.0,29.93,NE,36,10.0,12.0,52,0.00,,,0.00,,2013-03-24 18:43:00,
2013-03-24 13:52:00,34.0,18.0,29.93,North,353,6.0,10.0,52,0.00,,,0.00,,2013-03-24 18:52:00,
2013-03-24 14:02:00,33.0,17.0,29.93,North,0,9.0,10.0,52,0.00,,,0.00,,2013-03-24 19:02:00,
2013-03-24 14:12:00,33.0,17.0,29.93,North,0,9.0,10.0,52,0.00,,,0.00,,2013-03-24 19:12:00,
2013-03-24 14:22:00,33.0,17.0,29.93,North,0,9.0,10.0,52,0.00,,,0.00,,2013-03-24 19:22:00,
2013-03-24 14:32:00,33.0,17.0,29.93,North,0,9.0,10.0,52,0.00,,,0.00,,2013-03-24 19:32:00,
2013-03-24 14:42:00,33.0,17.0,29.93,North,0,9.0,10.0,52,0.00,,,0.00,,2013-03-24 19:42:00,
2013-03-24 15:53:00,33.0,17.0,29.93,NNE,14,6.0,14.0,51,0.00,,,0.00,,2013-03-24 20:53:00,
2013-03-24 16:02:00,33.0,18.0,29.90,North,7,5.0,9.0,54,0.00,,,0.00,,2013-03-24 21:02:00,
2013-03-24 16:12:00,33.0,18.0,29.90,North,7,5.0,9.0,54,0.00,,,0.00,,2013-03-24 21:12:00,
2013-03-24 16:22:00,32.0,19.0,29.90,North,5,8.0,9.0,57,0.00,,,0.00,,2013-03-24 21:22:00,
2013-03-24 16:33:00,32.0,19.0,29.90,North,5,8.0,9.0,57,0.00,,,0.00,,2013-03-24 21:33:00,
2013-03-24 16:43:00,32.0,19.0,29.90,North,5,8.0,9.0,57,0.00,,,0.00,,2013-03-24 21:43:00,
2013-03-24 16:53:00,32.0,18.0,29.90,North,357,9.0,10.0,55,0.00,,,0.00,,2013-03-24 21:53:00,
2013-03-24 17:02:00,31.0,18.0,29.90,NNE,19,10.0,13.0,58,0.00,,,0.00,,2013-03-24 22:02:00,
2013-03-24 17:13:00,31.0,18.0,29.90,NNE,19,10.0,13.0,58,0.00,,,0.00,,2013-03-24 22:13:00,
2013-03-24 17:23:00,31.0,17.0,29.90,North,0,13.0,14.0,56,0.00,,,0.00,,2013-03-24 22:23:00,
2013-03-24 17:33:00,31.0,18.0,29.90,North,0,10.0,16.0,57,0.00,,,0.00,,2013-03-24 22:33:00,
2013-03-24 17:42:00,31.0,18.0,29.90,North,0,10.0,16.0,57,0.00,,,0.00,,2013-03-24 22:42:00,
2013-03-24 17:52:00,29.0,17.0,29.90,NNE,12,8.0,13.0,60,0.00,,,0.00,,2013-03-24 22:52:00,
2013-03-24 18:02:00,30.0,19.0,29.90,North,357,6.0,9.0,64,0.00,,,0.00,,2013-03-24 23:02:00,
2013-03-24 18:12:00,30.0,19.0,29.90,North,357,6.0,9.0,64,0.00,,,0.00,,2013-03-24 23:12:00,
2013-03-24 18:22:00,29.0,19.0,29.90,North,4,6.0,10.0,66,0.00,,,0.00,,2013-03-24 23:22:00,
2013-03-24 18:32:00,29.0,19.0,29.90,NNE,12,12.0,12.0,67,0.00,,,0.00,,2013-03-24 23:32:00,
2013-03-24 18:42:00,29.0,19.0,29.90,NNE,12,12.0,12.0,67,0.00,,,0.00,,2013-03-24 23:42:00,
2013-03-24 18:53:00,29.0,18.0,29.93,NNE,12,10.0,14.0,64,0.00,,,0.00,,2013-03-24 23:53:00,
2013-03-24 19:02:00,29.0,19.0,29.93,NNW,343,5.0,13.0,66,0.00,,,0.00,,2013-03-25 00:02:00,
2013-03-24 19:12:00,29.0,19.0,29.93,NNW,343,5.0,13.0,66,0.00,,,0.00,,2013-03-25 00:12:00,
2013-03-24 19:22:00,29.0,19.0,29.93,NNE,19,8.0,10.0,67,0.00,,,0.00,,2013-03-25 00:22:00,
2013-03-24 19:32:00,29.0,19.0,29.93,North,353,9.0,12.0,67,0.00,,,0.00,,2013-03-25 00:32:00,
2013-03-24 19:42:00,29.0,19.0,29.93,North,353,9.0,12.0,67,0.00,,,0.00,,2013-03-25 00:42:00,
2013-03-24 19:53:00,28.0,20.0,29.93,North,7,10.0,10.0,71,0.00,,,0.00,,2013-03-25 00:53:00,
2013-03-24 20:02:00,28.0,20.0,29.93,North,0,10.0,12.0,72,0.00,,,0.00,,2013-03-25 01:02:00,
2013-03-24 20:12:00,28.0,20.0,29.93,North,0,10.0,12.0,72,0.00,,,0.00,,2013-03-25 01:12:00,
2013-03-24 20:22:00,28.0,21.0,29.93,North,357,10.0,12.0,74,0.00,,,0.00,,2013-03-25 01:22:00,
2013-03-24 20:32:00,28.0,21.0,29.93,North,1,8.0,8.0,74,0.00,,,0.00,,2013-03-25 01:32:00,
2013-03-24 20:42:00,28.0,21.0,29.93,North,1,8.0,8.0,74,0.00,,,0.00,,2013-03-25 01:42:00,
2013-03-24 20:52:00,28.0,20.0,29.96,North,357,11.0,13.0,72,0.00,,,0.00,,2013-03-25 01:52:00,
2013-03-24 21:02:00,28.0,20.0,29.96,North,0,10.0,10.0,72,0.00,,,0.00,,2013-03-25 02:02:00,
2013-03-24 21:12:00,28.0,20.0,29.96,North,0,10.0,10.0,72,0.00,,,0.00,,2013-03-25 02:12:00,
2013-03-24 21:22:00,28.0,21.0,29.96,NNW,348,8.0,9.0,74,0.00,,,0.00,,2013-03-25 02:22:00,
2013-03-24 21:32:00,27.0,20.0,29.96,North,353,6.0,9.0,74,0.00,,,0.00,,2013-03-25 02:32:00,
2013-03-24 21:42:00,27.0,20.0,29.96,North,353,6.0,9.0,74,0.00,,,0.00,,2013-03-25 02:42:00,
2013-03-24 21:52:00,28.0,18.0,29.96,North,1,10.0,10.0,67,0.00,,,0.00,,2013-03-25 02:52:00,
2013-03-24 22:02:00,28.0,16.0,29.96,North,9,9.0,13.0,59,0.00,,,0.00,,2013-03-25 03:02:00,
2013-03-24 22:13:00,28.0,16.0,29.96,North,9,9.0,13.0,59,0.00,,,0.00,,2013-03-25 03:13:00,
2013-03-24 22:22:00,29.0,15.0,29.96,NNE,18,8.0,13.0,55,0.00,,,0.00,,2013-03-25 03:22:00,
2013-03-24 22:33:00,29.0,14.0,29.96,North,2,10.0,13.0,54,0.00,,,0.00,,2013-03-25 03:33:00,
2013-03-24 22:42:00,29.0,14.0,29.96,NNW,348,10.0,10.0,54,0.00,,,0.00,,2013-03-25 03:42:00,
2013-03-24 22:53:00,29.0,14.0,29.96,NNW,348,10.0,10.0,54,0.00,,,0.00,,2013-03-25 03:53:00,
2013-03-24 23:02:00,29.0,15.0,29.96,North,1,9.0,16.0,55,0.00,,,0.00,,2013-03-25 04:02:00,
2013-03-24 23:12:00,29.0,15.0,29.96,North,1,9.0,16.0,55,0.00,,,0.00,,2013-03-25 04:12:00,
2013-03-24 23:22:00,29.0,15.0,29.96,North,0,13.0,13.0,55,0.00,,,0.00,,2013-03-25 04:22:00,
2013-03-24 23:32:00,29.0,15.0,29.96,NNE,26,8.0,14.0,56,0.00,,,0.00,,2013-03-25 04:32:00,
2013-03-24 23:42:00,29.0,15.0,29.96,NNE,26,8.0,14.0,56,0.00,,,0.00,,2013-03-25 04:42:00,
2013-03-24 23:52:00,29.0,15.0,29.96,NNE,15,14.0,14.0,56,0.00,,,0.00,,2013-03-25 04:52:00,